IU3IOK-3 Weather Reports


Display with metric or nautical units.
time (UTC)temp
F
wind
direction
speed
MPH
gust
MPH
rain 1hr
in
rain 24hr
in
rain mn
in
humidity
%
barometer
mb
20260506214141 63 0.0 0.0 0.00 0.00 0.00 96 1010.6
20260506212641 63 0.0 0.0 0.00 0.00 0.00 95 1010.6
20260506211141 63 0.0 0.0 0.00 0.00 0.00 95 1010.7
20260506205641 63 0.0 0.0 0.00 0.00 0.00 95 1010.5
20260506204141 63 0.0 0.0 0.00 0.00 0.00 95 1010.6
20260506202641 64 0.0 0.0 0.00 0.00 0.00 95 1010.5
20260506201141 64 0.0 0.0 0.00 0.00 0.00 95 1010.5
20260506195641 64 0.0 0.0 0.00 0.00 0.00 95 1010.3
20260506194141 64 0.0 0.0 0.00 0.00 0.00 94 1010.2
20260506192641 64 0.0 0.0 0.00 0.00 0.00 95 1010.1
20260506191141 64 0.0 0.0 0.00 0.00 0.00 96 1010.0
20260506185641 65 0.0 0.0 0.00 0.00 0.00 94 1009.9
20260506184141 65 0.0 0.0 0.00 0.00 0.00 93 1009.8
20260506182641 65 0.0 0.0 0.00 0.00 0.00 92 1009.6
20260506181141 65 0.0 0.0 0.00 0.00 0.00 92 1009.5
20260506175642 65 0.0 0.0 0.00 0.00 0.00 93 1009.3
20260506174141 65 0.0 0.0 0.00 0.00 0.00 93 1009.2
20260506172641 65 0.0 0.0 0.00 0.00 0.00 92 1009.2
20260506171141 65 0.0 0.0 0.00 0.00 0.00 91 1009.1
20260506165641 65 0.0 0.0 0.00 0.00 0.00 92 1009.1
20260506164141 65 0.0 0.0 0.00 0.00 0.00 92 1009.2
20260506162641 66 0.0 0.0 0.00 0.00 0.00 92 1009.3
20260506161141 66 0.0 0.0 0.00 0.00 0.00 93 1009.4
20260506155641 65 0.0 0.0 0.00 0.00 0.00 91 1009.4
20260506154141 65 0.0 0.0 0.00 0.00 0.00 91 1009.2
20260506152641 65 0.0 0.0 0.00 0.00 0.00 93 1009.1
20260506151141 65 0.0 0.0 0.00 0.00 0.00 97 1009.2
20260506145641 65 0.0 0.0 0.00 0.00 0.00 99 1009.3
20260506144141 65 0.0 0.0 0.00 0.00 0.00 97 1009.2
20260506142641 65 0.0 0.0 0.00 0.00 0.00 98 1009.2
20260506141141 65 0.0 0.0 0.00 0.00 0.00 97 1009.4
20260506135641 65 0.0 0.0 0.00 0.00 0.00 95 1009.7
20260506134141 65 0.0 0.0 0.00 0.00 0.00 93 1009.8
20260506132641 66 0.0 0.0 0.00 0.00 0.00 90 1009.9
20260506131141 66 0.0 0.0 0.00 0.00 0.00 87 1009.9
20260506125641 66 0.0 0.0 0.00 0.00 0.00 88 1010.1
20260506124141 66 0.0 0.0 0.00 0.00 0.00 87 1010.2
20260506122641 66 0.0 0.0 0.00 0.00 0.00 89 1010.1
20260506121141 66 0.0 0.0 0.00 0.00 0.00 89 1010.2
20260506115641 66 0.0 0.0 0.00 0.00 0.00 88 1010.3
20260506114141 66 0.0 0.0 0.00 0.00 0.00 91 1010.4
20260506112641 66 0.0 0.0 0.00 0.00 0.00 94 1010.6
20260506111141 65 0.0 0.0 0.00 0.00 0.00 94 1010.6
20260506105641 65 0.0 0.0 0.00 0.00 0.00 92 1010.8
20260506104141 65 0.0 0.0 0.00 0.00 0.00 91 1010.9
20260506102641 65 0.0 0.0 0.00 0.00 0.00 90 1010.9
20260506101141 65 0.0 0.0 0.00 0.00 0.00 89 1011.0
20260506095641 65 0.0 0.0 0.00 0.00 0.00 92 1011.1
20260506094141 65 0.0 0.0 0.00 0.00 0.00 94 1011.0
20260506092641 65 0.0 0.0 0.00 0.00 0.00 95 1011.0
20260506091141 65 0.0 0.0 0.00 0.00 0.00 95 1010.9
20260506085641 65 0.0 0.0 0.00 0.00 0.00 96 1010.7
20260506084141 65 0.0 0.0 0.00 0.00 0.00 98 1010.6
20260506082641 65 0.0 0.0 0.00 0.00 0.00 10 1010.4
20260506081141 64 0.0 0.0 0.00 0.00 0.00 10 1010.4
20260506072641 63 0.0 0.0 0.00 0.00 0.00 10 1010.6
20260506071141 62 0.0 0.0 0.00 0.00 0.00 99 1010.6
20260506061141 61 0.0 0.0 0.00 0.00 0.00 97 1010.7
20260506051142 61 0.0 0.0 0.00 0.00 0.00 96 1010.8
20260506044142 60 0.0 0.0 0.00 0.00 0.00 95 1010.8
20260506042642 60 0.0 0.0 0.00 0.00 0.00 95 1010.6
20260506041142 60 0.0 0.0 0.00 0.00 0.00 95 1010.6
20260506035642 60 0.0 0.0 0.00 0.00 0.00 94 1010.6
20260506034142 60 0.0 0.0 0.00 0.00 0.00 93 1010.8
20260506032642 60 0.0 0.0 0.00 0.00 0.00 93 1010.8
20260506031142 60 0.0 0.0 0.00 0.00 0.00 92 1010.9
20260506025642 60 0.0 0.0 0.00 0.00 0.00 92 1011.2
20260506024142 60 0.0 0.0 0.00 0.00 0.00 91 1011.3
20260506022642 60 0.0 0.0 0.00 0.00 0.00 91 1011.2
20260506021142 60 0.0 0.0 0.00 0.00 0.00 91 1011.4
20260506015642 60 0.0 0.0 0.00 0.00 0.00 92 1011.6
20260506014142 60 0.0 0.0 0.00 0.00 0.00 92 1011.6
20260506012642 61 0.0 0.0 0.00 0.00 0.00 91 1011.6
20260506011142 61 0.0 0.0 0.00 0.00 0.00 90 1011.8
20260506005642 61 0.0 0.0 0.00 0.00 0.00 90 1011.8
20260506004142 61 0.0 0.0 0.00 0.00 0.00 90 1011.9
20260506002642 61 0.0 0.0 0.00 0.00 0.00 91 1011.8
20260506001141 61 0.0 0.0 0.00 0.00 0.00 91 1011.8
20260505235641 61 0.0 0.0 0.00 0.00 0.00 90 1011.9
20260505234141 61 0.0 0.0 0.00 0.00 0.00 90 1012.0
20260505232641 61 0.0 0.0 0.00 0.00 0.00 90 1012.2
20260505231141 61 0.0 0.0 0.00 0.00 0.00 89 1012.4
20260505225641 61 0.0 0.0 0.00 0.00 0.00 90 1012.5
20260505224141 61 0.0 0.0 0.00 0.00 0.00 90 1012.6
20260505222641 61 0.0 0.0 0.00 0.00 0.00 90 1012.8
20260505221142 61 0.0 0.0 0.00 0.00 0.00 90 1012.9
20260505215641 61 0.0 0.0 0.00 0.00 0.00 90 1012.8